DW9750 Weather Reports


time (UTC)temp
C
wind
direction
speed
KPH
gust
KPH
rain 1hr
cm
rain 24hr
cm
rain mn
cm
humidity
%
barometer
mb
20260902023044 28 70 1.6 3.2 0.00 0.00 0.00 55 1011.5
20260902021546 29 70 0.0 0.0 0.00 0.00 0.00 55 1011.2
20260902020045 29 70 0.0 3.2 0.00 0.00 0.00 52 1011.1
20260902014541 30 91 0.0 3.2 0.00 0.00 0.00 50 1010.8
20260902013043 30 91 0.0 3.2 0.00 0.00 0.00 49 1010.7
20260902011543 31 89 1.6 4.8 0.00 0.00 0.00 48 1010.5
20260902010043 31 92 1.6 6.4 0.00 0.00 0.00 46 1010.4
20260902004541 32 85 1.6 4.8 0.00 0.00 0.00 44 1010.4
20260902003039 33 115 1.6 4.8 0.00 0.00 0.00 43 1010.5
20260902001539 34 97 1.6 8.0 0.00 0.00 0.00 41 1010.4
20260902000038 34 109 4.8 12.9 0.00 0.00 0.00 41 1010.5
20260901234536 35 92 8.0 14.5 0.00 0.00 0.00 40 1010.3
20260901233036 36 206 3.2 9.7 0.00 0.00 0.00 38 1010.3
20260901231543 36 90 3.2 11.3 0.00 0.00 0.00 37 1010.3
20260901230038 36 177 6.4 11.3 0.00 0.00 0.00 37 1010.2
20260901224536 36 175 3.2 8.0 0.00 0.00 0.00 38 1010.3
20260901223034 36 114 1.6 16.1 0.00 0.00 0.00 38 1010.3
20260901221534 36 303 0.0 6.4 0.00 0.00 0.00 36 1010.3
20260901220032 36 177 3.2 11.3 0.00 0.00 0.00 37 1010.3
20260901214536 37 9 4.8 11.3 0.00 0.00 0.00 36 1010.4
20260901213033 36 214 0.0 14.5 0.00 0.00 0.00 38 1010.6
20260901211526 37 265 3.2 14.5 0.00 0.00 0.00 37 1010.8
20260901210023 36 195 3.2 9.7 0.00 0.00 0.00 38 1011.1
20260901204522 36 183 4.8 12.9 0.00 0.00 0.00 37 1011.3
20260901203020 36 298 4.8 12.9 0.00 0.00 0.00 40 1011.5
20260901201517 36 82 6.4 11.3 0.00 0.00 0.00 38 1011.9
20260901200017 36 274 4.8 14.5 0.00 0.00 0.00 38 1011.9
20260901194511 35 184 6.4 12.9 0.00 0.00 0.00 39 1012.2
20260901193011 35 239 6.4 14.5 0.00 0.00 0.00 40 1012.3
20260901191513 35 251 4.8 9.7 0.00 0.00 0.00 40 1012.5
20260901190005 35 40 1.6 4.8 0.00 0.00 0.00 40 1012.7
20260901184503 35 91 3.2 8.0 0.00 0.00 0.00 43 1013.1
20260901183120 34 125 1.6 11.3 0.00 0.00 0.00 42 1013.3
20260901181558 33 161 3.2 11.3 0.00 0.00 0.00 43 1013.5
20260901180057 33 166 4.8 12.9 0.00 0.00 0.00 43 1013.8
20260901174554 33 131 3.2 11.3 0.00 0.00 0.00 42 1014.1
20260901173119 33 173 4.8 11.3 0.00 0.00 0.00 47 1014.1
20260901171555 32 120 3.2 11.3 0.00 0.00 0.00 48 1014.3
20260901170054 32 215 3.2 9.7 0.00 0.00 0.00 50 1014.4
20260901164547 32 234 1.6 11.3 0.00 0.00 0.00 51 1014.5
20260901163104 31 173 3.2 12.9 0.00 0.00 0.00 52 1014.6
20260901161548 30 139 3.2 11.3 0.00 0.00 0.00 56 1014.7
20260901160039 30 87 3.2 9.7 0.00 0.00 0.00 58 1014.7
20260901154532 30 182 1.6 4.8 0.00 0.00 0.00 62 1014.7
20260901153030 29 101 3.2 8.0 0.00 0.00 0.00 66 1014.6
20260901151526 28 317 1.6 9.7 0.00 0.00 0.00 68 1014.8
20260901150022 27 121 3.2 8.0 0.00 0.00 0.00 71 1014.7
20260901144520 27 223 3.2 8.0 0.00 0.00 0.00 73 1014.7
20260901143020 26 68 0.0 4.8 0.00 0.00 0.00 76 1014.7
20260901141530 26 274 0.0 3.2 0.00 0.00 0.00 81 1014.8
20260901140021 24 66 0.0 0.0 0.00 0.00 0.00 87 1014.8
20260901134516 23 75 0.0 0.0 0.00 0.00 0.00 88 1014.7
20260901133018 22 75 0.0 0.0 0.00 0.00 0.00 90 1014.6
20260901131518 21 75 0.0 0.0 0.00 0.00 0.00 90 1014.6
20260901130014 21 75 0.0 0.0 0.00 0.00 0.00 91 1014.5
20260901124512 20 75 0.0 0.0 0.00 0.00 0.00 91 1014.4
20260901123021 20 75 0.0 0.0 0.00 0.00 0.00 90 1014.3
20260901121514 21 75 0.0 0.0 0.00 0.00 0.00 89 1014.2
20260901120007 21 75 0.0 0.0 0.00 0.00 0.00 89 1014.2
20260901114505 21 75 0.0 0.0 0.00 0.00 0.00 88 1014.3
20260901113003 21 75 0.0 0.0 0.00 0.00 0.00 87 1014.2
20260901111501 22 75 0.0 0.0 0.00 0.00 0.00 88 1014.1
20260901110100 22 75 0.0 0.0 0.00 0.00 0.00 90 1013.9
20260901104602 22 75 0.0 0.0 0.00 0.00 0.00 86 1013.9
20260901103101 22 75 0.0 0.0 0.00 0.00 0.00 86 1014.0
20260901101607 22 75 0.0 0.0 0.00 0.00 0.00 85 1014.1
20260901100106 22 75 0.0 0.0 0.00 0.00 0.00 84 1014.0
20260901094554 22 94 0.0 0.0 0.00 0.00 0.00 83 1014.0
20260901093051 23 94 0.0 0.0 0.00 0.00 0.00 82 1014.1
20260901091550 23 71 0.0 1.6 0.00 0.00 0.00 81 1014.3
20260901090046 23 92 0.0 1.6 0.00 0.00 0.00 79 1014.2
20260901084552 23 109 0.0 3.2 0.00 0.00 0.00 78 1014.2
20260901083044 24 89 1.6 3.2 0.00 0.00 0.00 77 1014.1
20260901081543 24 83 0.0 4.8 0.00 0.00 0.00 76 1014.1
20260901080050 24 78 0.0 1.6 0.00 0.00 0.00 74 1014.1
20260901074537 25 78 0.0 4.8 0.00 0.00 0.00 73 1014.0
20260901073045 25 52 3.2 8.0 0.00 0.00 0.00 72 1014.0
20260901071533 25 109 3.2 6.4 0.00 0.00 0.00 70 1014.0
20260901070030 25 80 3.2 6.4 0.00 0.00 0.00 69 1013.9
20260901064529 26 79 0.0 6.4 0.00 0.00 0.00 68 1013.8
20260901063026 26 104 3.2 6.4 0.00 0.00 0.00 67 1013.7
20260901061523 26 100 3.2 9.7 0.00 0.00 0.00 67 1013.6
20260901060035 27 151 4.8 12.9 0.00 0.00 0.00 66 1013.4
20260901054518 27 96 4.8 9.7 0.00 0.00 0.00 67 1013.3
20260901053015 27 171 3.2 11.3 0.00 0.00 0.00 67 1013.2
20260901051514 27 109 3.2 11.3 0.00 0.00 0.00 67 1013.1
20260901050012 27 111 3.2 8.0 0.00 0.00 0.00 66 1012.9
20260901044511 28 153 0.0 8.0 0.00 0.00 0.00 65 1012.9
20260901043010 28 97 3.2 11.3 0.00 0.00 0.00 65 1012.9
20260901041509 28 91 3.2 9.7 0.00 0.00 0.00 64 1012.8
20260901040009 28 121 3.2 8.0 0.00 0.00 0.00 64 1012.8
20260901034508 28 89 3.2 8.0 0.00 0.00 0.00 63 1012.7
20260901033007 28 101 4.8 11.3 0.00 0.00 0.00 61 1012.5
20260901031507 28 110 3.2 8.0 0.00 0.00 0.00 58 1012.4
20260901030005 28 105 1.6 9.7 0.00 0.00 0.00 56 1012.2
20260901024504 29 79 4.8 9.7 0.00 0.00 0.00 54 1012.1